User: anonymous   Login
Location: Holcomb Observatory
(44.4922°N, 73.1654°W)
Time: 08:09:59
(UTC-04:00)
Language:

Cosmos 1727 Rocket - Orbit

View from above orbital plane
View from above orbital plane
View from above satellite
View from above satellite

Ground track
Ground track

The orbit data is extracted from the following two-line orbital elements,

1 16511U 86008B   15243.47369269  .00000042  00000-0  27971-4 0  9993
2 16511 082.9483 346.1864 0023190 316.7145 092.6134 13.75800505486113
Epoch (UTC): 31 August 2015 11:22:07
Eccentricity: 0.0023190
inclination: 82.9483°
perigee height: 962 km
apogee height: 996 km
right ascension of ascending node: 346.1864°
argument of perigee: 316.7145°
revolutions per day: 13.75800505
mean anomaly at epoch: 92.6134°
orbit number at epoch: 48611

The dashed part of the orbit path shows where the satellite is in the earth's shadow,  

DLR